Location: Arnolds Mill
(42.3415°N, 73.5951°W)
Time: 10:27:01
(UTC+00:00)

BlueWalker 3 - Pass Details

Date: 25 June 2024
Orbit: 480 x 492 km, 53.2° (Epoch: 13 July)

Event Time Altitude Azimuth Distance (km) Brightness Sun altitude
Rises 04:50:29 0° 310° (NW) 2,541 6.1 -24.3°
Reaches altitude 10° 04:52:53 10° 323° (NW) 1,659 5.3 -24.3°
Maximum altitude 04:56:07 27° 23° (NNE) 956 3.9 -24.3°
Enters shadow 04:58:55 12° 79° (E) 1,517 4.5 -24.3°
